Wind_Speed
20 20 20 21 23 24 25 25 27 27 26 26 29 26 23 21 22 23 23 24 23 22
18 19 19 20 20 22 23 24 26 25 27 27 29 26 24 22 23 23 24 24 25 23
18 18 18 18 20 22 24 25 26 25 26 28 30 26 25 24 23 23 25 24 25 26
17 17 17 17 19 21 22 24 25 25 26 28 29 26 25 24 24 24 24 24 25 27
16 15 16 17 18 20 21 22 23 25 25 28 29 26 24 25 24 25 26 26 27 28
15 15 16 16 17 18 21 21 23 25 25 27 29 28 23 24 25 23 24 25 26 28
14 14 15 15 16 18 19 22 23 25 25 26 29 29 25 25 25 24 24 26 25 28
12 13 14 15 15 16 17 19 22 24 25 27 30 29 28 26 26 26 28 27 27 27
12 13 14 14 15 15 17 17 19 22 24 25 31 28 26 27 26 28 30 31 30 30
12 13 13 14 14 15 17 17 18 19 20 21 32 30 26 27 26 29 29 31 33 34
11 12 13 13 14 15 16 16 17 18 20 19 28 30 25 24 24 27 27 29 34 33
10 11 13 13 14 14 15 15 17 17 19 21 24 28 28 24 21 24 26 27 31 33
9 11 12 13 13 14 14 14 15 16 18 20 22 27 28 27 24 22 23 26 28 30
8 10 11 12 12 13 13 13 15 15 16 19 22 23 26 27 27 23 23 26 29 29
Wind_Direction
359 360 359 357 355 348 350 353 348 356 0 0 1 3 5 5 0 6 6 8 10 9
1 3 1 359 358 353 354 355 351 1 8 5 3 7 7 6 5 4 7 9 10 10
3 5 2 1 1 360 359 357 354 9 12 10 7 10 12 11 9 10 9 6 10 11
5 7 5 6 4 3 2 1 359 14 15 12 9 14 14 15 12 11 9 11 10 11
6 8 9 9 7 5 5 5 4 17 15 13 12 15 16 15 13 14 10 10 11 10
11 11 11 11 9 9 7 10 6 19 16 13 13 15 23 19 15 15 12 14 15 8
14 12 11 11 11 13 10 8 9 19 17 16 12 16 24 25 19 17 18 16 22 12
15 13 12 13 13 13 15 13 8 13 17 16 16 20 27 28 19 20 22 22 25 17
18 16 15 13 15 15 15 15 15 15 13 15 18 23 33 30 24 25 25 23 28 25
22 21 19 16 17 18 17 16 16 15 18 14 20 24 33 32 22 29 25 24 27 30
27 25 22 21 21 18 19 20 18 17 16 21 19 24 33 35 22 30 26 28 27 33
33 29 25 26 23 22 21 22 21 19 18 24 14 24 29 35 31 28 29 31 29 33
37 34 28 27 25 23 24 23 22 20 21 15 23 22 31 34 33 28 28 32 35 36
41 39 31 30 28 27 26 25 26 23 20 22 13 23 30 31 34 36 28 31 35 36
Height
1545 1540 1537 1532 1527 1522 1515 1509 1503 1495 1489 1484 1477 1472 1466 1462 1457 1453 1448 1444 1439 1435
1545 1541 1538 1533 1529 1523 1517 1510 1504 1497 1491 1486 1480 1473 1468 1464 1460 1455 1450 1445 1441 1437
1545 1542 1539 1535 1530 1524 1518 1512 1505 1498 1493 1488 1482 1476 1470 1466 1462 1458 1453 1449 1444 1439
1546 1543 1540 1536 1532 1526 1520 1514 1506 1500 1495 1491 1485 1479 1474 1469 1465 1461 1457 1453 1448 1444
1546 1543 1541 1537 1533 1528 1522 1516 1509 1502 1498 1493 1488 1482 1477 1472 1468 1464 1460 1455 1451 1446
1547 1544 1541 1538 1535 1531 1525 1519 1511 1505 1501 1496 1490 1484 1479 1476 1472 1468 1464 1459 1453 1448
1548 1545 1542 1539 1536 1532 1528 1522 1515 1509 1504 1499 1493 1487 1483 1479 1475 1471 1466 1462 1457 1452
1550 1547 1544 1541 1537 1534 1530 1526 1521 1513 1508 1503 1496 1490 1486 1482 1478 1473 1468 1463 1458 1456
1551 1549 1545 1542 1539 1536 1532 1529 1525 1520 1513 1508 1501 1496 1491 1487 1482 1477 1472 1467 1462 1457
1553 1550 1547 1544 1541 1538 1534 1531 1528 1524 1519 1514 1507 1501 1495 1492 1488 1482 1478 1473 1468 1460
1554 1551 1549 1546 1543 1540 1537 1534 1531 1527 1522 1519 1511 1506 1501 1497 1493 1488 1484 1479 1474 1470
1554 1552 1550 1547 1545 1542 1540 1537 1534 1531 1527 1521 1516 1511 1506 1501 1498 1494 1489 1485 1480 1475
1555 1553 1551 1549 1547 1545 1543 1540 1538 1535 1531 1527 1521 1515 1510 1504 1501 1499 1495 1490 1486 1483
1556 1554 1553 1551 1549 1548 1545 1543 1541 1538 1535 1531 1526 1521 1515 1510 1506 1503 1500 1495 1491 1487